[[{"header":{"parameterUnit":"m.s-1","parameterCategory":1,"la1":30.2991,"la2":30.254,"lo1":-89.0895,"lo2":-89.0444,"dy":0.0017,"dx":0.0017,"nx":28,"ny":28,"refTime":"2025-06-16T03:00:00:Z","depth":0,"parameterNumber":2,"parameterNumberName":"U-component_of_WINDS"},"data":[0,0,0,0,0,0,0,0,0,0,0,0,0,0,0,0,0,0,0,0,0,0,0,0,0,0,0,0,0,0,0,0,0,0,0,0,0,0,0,0,0,0,0,0,0,0,0,0,0,0,0,0,0,0,0,0,0,0,1.1596,1.1596,0,1.159,1.159,1.159,1.1559,1.1558,1.1557,1.1557,1.155,1.155,1.1551,0,0,0,0,0,0,0,0,0,0,0,0,0,1.1576,1.1576,1.1596,1.1596,1.1595,1.159,1.159,1.159,1.1559,1.1558,1.1557,1.1556,1.155,1.155,1.1551,0,0,0,0,0,0,0,0,0,0,0,0,0,1.1579,1.1577,1.1596,1.1579,1.1578,1.159,1.159,1.159,1.1559,1.1558,1.1557,1.1556,1.1549,1.155,1.1551,1.1578,0,0,1.1553,1.1553,0,0,0,0,0,0,0,0,1.1579,1.158,1.1582,1.1581,1.1579,1.1574,1.1581,1.1586,1.1559,1.1566,1.1557,1.1555,1.1559,1.1559,1.156,1.1578,1.1577,1.1553,1.1554,1.1554,1.1554,0,0,0,0,0,0,0,1.1579,1.158,1.1593,1.1582,1.158,1.1571,1.1571,1.1581,1.1569,1.1566,1.1563,1.1563,1.1558,1.1559,1.156,1.1577,1.1553,1.1554,1.1554,1.1555,1.1613,1.1614,0,0,0,0,0,0,1.1581,1.158,1.1594,1.1593,1.1576,1.1573,1.1572,1.1577,1.1569,1.1566,1.1564,1.1562,1.1559,1.1559,1.1559,1.1588,1.1554,1.1555,1.1555,1.1612,1.1614,1.1615,0,0,0,0,0,0,1.1581,1.1583,1.1594,1.1586,1.1587,1.1574,1.158,1.1577,1.1579,1.1567,1.1565,1.1568,1.1558,1.1558,1.1573,1.1587,1.1555,1.1556,1.1611,1.1613,1.1614,1.1647,0,0,0,0,0,0,1.158,1.1583,1.1594,1.1586,1.1587,1.1609,1.1581,1.1578,1.158,1.1577,1.1571,1.1569,1.1557,1.1572,1.1574,1.1588,1.1556,1.161,1.1612,1.1614,1.1645,1.165,1.1654,0,0,0,0,0,1.158,1.1604,1.1594,1.1596,1.1601,1.161,1.161,1.1596,1.1582,1.1592,1.1584,1.1569,1.1586,1.1574,1.1575,1.159,1.1609,1.1611,1.1613,1.1642,1.1649,1.1654,0,0,0,0,0,0,1.1613,1.1602,1.1592,1.1615,1.1613,1.1604,1.1617,1.1604,1.1606,1.1603,1.1586,1.1584,1.1601,1.1597,1.1584,1.1614,1.1594,1.1597,1.1616,1.1621,1.1626,1.1626,1.1557,0,0,0,0,0,1.1623,1.1632,1.1622,1.1642,1.1642,1.163,1.1633,1.1622,1.162,1.1619,1.1613,1.161,1.1615,1.1618,1.1622,1.1644,1.1641,1.1655,1.166,1.1663,1.1666,1.1674,1.1679,1.1623,1.1623,1.1623,0,0,1.1644,1.1639,1.1646,1.1649,1.1647,1.1654,1.1629,1.164,1.1645,1.1621,1.1633,1.1629,1.1625,1.1643,1.165,1.164,1.1681,1.1667,1.167,1.167,1.1677,1.1683,1.1687,1.1625,1.1624,1.1624,0,0,1.1685,1.1683,1.1699,1.1697,1.1693,1.1684,1.1688,1.1681,1.1676,1.1689,1.167,1.1676,1.1685,1.1682,1.1682,1.172,1.1705,1.1722,1.1745,1.1754,1.1758,1.1762,1.1773,1.1778,1.1724,1.1724,1.1724,0,1.1711,1.1723,1.1708,1.1719,1.172,1.1698,1.1713,1.1711,1.1709,1.171,1.1699,1.1707,1.1704,1.1719,1.1728,1.173,1.1731,1.1722,1.1759,1.1763,1.1766,1.1776,1.1781,1.1726,1.1726,1.1726,1.1725,0,1.1753,1.1762,1.1774,1.1772,1.1775,1.1787,1.1774,1.1778,1.1767,1.1759,1.177,1.1765,1.1766,1.1769,1.1759,1.1782,1.1776,1.1762,1.1742,1.1773,1.1783,1.1787,1.1729,1.1728,1.1728,1.1727,0,0,1.1815,1.1804,1.1808,1.1806,1.18,1.1806,1.1816,1.1817,1.182,1.1819,1.1826,1.1833,1.182,1.1819,1.1808,1.1816,1.1843,1.1801,1.1801,1.1807,1.1866,1.1874,1.1879,1.1834,1.1834,1.1835,1.1865,0,1.1852,1.187,1.1857,1.1876,1.1882,1.1861,1.187,1.1867,1.1859,1.1862,1.1854,1.1858,1.1842,1.1841,1.1848,1.1838,1.1854,1.1836,1.1838,1.1838,1.1838,1.1885,1.1894,1.1923,1.1869,1.1869,1.187,0,1.1898,1.1898,1.1919,1.1909,1.1911,1.1919,1.1917,1.1922,1.1916,1.191,1.1909,1.1895,1.1903,1.1884,1.1894,1.1882,1.1882,1.1877,1.1878,1.1876,1.1855,1.1882,1.1932,1.1936,1.1876,1.1875,1.1875,0,1.1938,1.1944,1.1956,1.1955,1.1944,1.195,1.1946,1.1939,1.194,1.1939,1.1938,1.1938,1.1937,1.1937,1.1922,1.191,1.1933,1.1913,1.1926,1.1926,1.1931,1.193,1.1979,1.1934,1.1934,1.1934,1.1934,0,1.198,1.1992,1.1973,1.198,1.1993,1.1977,1.1989,1.1983,1.1977,1.1981,1.1964,1.1968,1.195,1.1952,1.1941,1.1949,1.195,1.1944,1.194,1.1944,1.1944,1.1942,1.1939,1.1935,1.1935,1.1935,1.1935,0,1.2026,1.2014,1.2025,1.2014,1.2011,1.2021,1.201,1.2016,1.2007,1.2012,1.2013,1.1998,1.2,1.1986,1.1985,1.1977,1.1989,1.1983,1.1991,1.1988,1.2001,1.1999,1.2049,1.2054,1.2008,1.2008,1.2008,0,1.2053,1.2062,1.2051,1.2052,1.2049,1.2052,1.2052,1.2036,1.2037,1.203,1.2036,1.2036,1.2035,1.2037,1.2026,1.2024,1.2017,1.2035,1.2017,1.2019,1.2014,1.2013,1.2013,1.2038,1.2038,1.2039,1.2039,0,1.21,1.2093,1.2094,1.2092,1.2093,1.2091,1.2088,1.209,1.2072,1.2074,1.2075,1.2074,1.2072,1.2071,1.2067,1.2061,1.2046,1.2045,1.2048,1.2051,1.2054,1.205,1.1999,1.2044,1.2043,1.2043,1.2043,1.2043,1.2135,1.2141,1.2134,1.2135,1.2131,1.2128,1.2131,1.2122,1.2123,1.212,1.211,1.2112,1.2105,1.2098,1.2093,1.2094,1.2085,1.2089,1.209,1.209,1.2092,1.2055,1.2093,1.2093,1.2093,1.2093,1.2093,0,1.218,1.2174,1.2175,1.217,1.217,1.2157,1.2153,1.2153,1.2155,1.215,1.2148,1.2148,1.2147,1.2135,1.2132,1.2135,1.2128,1.2134,1.2133,1.2131,1.2101,1.2098,1.214,1.214,1.214,1.214,1.2139,1.2139,1.2203,1.2211,1.2203,1.2208,1.2202,1.2203,1.2201,1.2198,1.2193,1.2193,1.2192,1.2184,1.2176,1.2172,1.2169,1.2166,1.2164,1.2173,1.2167,1.2138,1.2134,1.2129,1.2126,1.2173,1.2173,1.2196,1.2197,1.2197]},{"header":{"parameterUnit":"m.s-1","parameterCategory":1,"la1":30.2991,"la2":30.254,"lo1":-89.0895,"lo2":-89.0444,"dy":0.0017,"dx":0.0017,"nx":28,"ny":28,"refTime":"2025-06-16T03:00:00:Z","depth":0,"parameterNumber":3,"parameterNumberName":"V-component_of_WINDS"},"data":[0,0,0,0,0,0,0,0,0,0,0,0,0,0,0,0,0,0,0,0,0,0,0,0,0,0,0,0,0,0,0,0,0,0,0,0,0,0,0,0,0,0,0,0,0,0,0,0,0,0,0,0,0,0,0,0,0,0,5.2945,5.2946,0,5.3043,5.3044,5.3045,5.2993,5.2991,5.2988,5.2986,5.3081,5.3086,5.3091,0,0,0,0,0,0,0,0,0,0,0,0,0,5.2704,5.2709,5.2944,5.2946,5.2947,5.3043,5.3044,5.3045,5.2994,5.2991,5.2988,5.2985,5.3079,5.3085,5.3091,0,0,0,0,0,0,0,0,0,0,0,0,0,5.2806,5.271,5.2944,5.2933,5.2933,5.3042,5.3044,5.3046,5.2995,5.2991,5.2987,5.2983,5.3077,5.3084,5.3092,5.3216,0,0,5.3115,5.3118,0,0,0,0,0,0,0,0,5.28,5.2815,5.2933,5.2934,5.2934,5.3002,5.2994,5.3103,5.2996,5.2971,5.2986,5.2981,5.3057,5.3066,5.3093,5.3221,5.3225,5.3115,5.312,5.3123,5.3125,0,0,0,0,0,0,0,5.2793,5.281,5.2983,5.2935,5.2936,5.292,5.293,5.3014,5.3035,5.2973,5.2969,5.2982,5.3057,5.3086,5.3095,5.3226,5.3115,5.3122,5.3126,5.3129,5.3456,5.346,0,0,0,0,0,0,5.2788,5.2805,5.298,5.2986,5.2856,5.2928,5.2939,5.2984,5.3034,5.3038,5.2985,5.2979,5.3075,5.3086,5.3098,5.3244,5.3123,5.313,5.3134,5.3452,5.3457,5.3462,0,0,0,0,0,0,5.2783,5.2804,5.2976,5.2895,5.2915,5.2936,5.2987,5.2988,5.3017,5.3043,5.3046,5.3012,5.3073,5.3088,5.3187,5.3247,5.3133,5.314,5.3447,5.3454,5.3459,5.354,0,0,0,0,0,0,5.2776,5.2802,5.2852,5.2896,5.292,5.3066,5.2991,5.2993,5.3031,5.3024,5.3069,5.3073,5.3071,5.3176,5.3194,5.3255,5.3146,5.3442,5.345,5.3457,5.3532,5.3548,5.3562,0,0,0,0,0,5.2768,5.287,5.2855,5.2876,5.2983,5.307,5.3083,5.308,5.3036,5.3085,5.31,5.3071,5.3238,5.3187,5.3207,5.3271,5.3438,5.3448,5.3457,5.3525,5.3545,5.3561,0,0,0,0,0,0,5.2832,5.2876,5.2859,5.298,5.3022,5.3061,5.3122,5.3102,5.3155,5.3146,5.3139,5.3149,5.3252,5.3271,5.3213,5.3392,5.333,5.3344,5.3375,5.3394,5.3409,5.3402,5.3152,0,0,0,0,0,5.286,5.2929,5.2963,5.3066,5.3088,5.3102,5.3139,5.3134,5.3175,5.3192,5.3215,5.3255,5.3316,5.3356,5.3414,5.3534,5.3541,5.3588,5.3603,5.3615,5.3627,5.3688,5.3708,5.3493,5.3493,5.3493,0,0,5.2919,5.2952,5.2996,5.308,5.3111,5.318,5.3117,5.3193,5.3243,5.3203,5.3298,5.3316,5.336,5.3469,5.3518,5.3488,5.3688,5.3627,5.3637,5.3642,5.37,5.372,5.3738,5.3499,5.3498,5.3497,0,0,5.3062,5.3095,5.3183,5.3215,5.3264,5.3272,5.3293,5.3335,5.3345,5.3441,5.3411,5.3469,5.3575,5.3607,5.3636,5.3787,5.3761,5.3806,5.3884,5.3944,5.3961,5.3976,5.4026,5.4045,5.3818,5.3818,5.3818,0,5.3128,5.3233,5.323,5.3308,5.3344,5.3312,5.3399,5.343,5.3494,5.3518,5.3484,5.3614,5.3642,5.3756,5.3793,5.3819,5.384,5.38,5.3959,5.3974,5.3988,5.4036,5.4056,5.3823,5.3822,5.3822,5.3821,0,5.3311,5.3384,5.3448,5.3512,5.3555,5.3638,5.3643,5.3687,5.3677,5.3687,5.3782,5.3814,5.3876,5.3902,5.3893,5.4015,5.3994,5.396,5.3898,5.4013,5.4058,5.4077,5.383,5.3828,5.3827,5.3825,0,0,5.3498,5.3557,5.3581,5.3608,5.3658,5.3712,5.3791,5.3853,5.3889,5.3933,5.3997,5.4086,5.4053,5.4087,5.4081,5.4133,5.4246,5.4092,5.4093,5.4117,5.4378,5.4403,5.4424,5.423,5.4233,5.4236,5.4374,0,5.3642,5.3782,5.3779,5.3908,5.3972,5.3942,5.4009,5.4045,5.4057,5.4111,5.4122,5.4184,5.4139,5.4158,5.4209,5.4222,5.4298,5.4212,5.4286,5.4288,5.4274,5.4449,5.4475,5.4604,5.4392,5.4395,5.4397,0,5.3829,5.388,5.4015,5.4052,5.4079,5.4141,5.4195,5.4249,5.4287,5.4291,5.4328,5.4312,5.4388,5.4325,5.4428,5.4369,5.4399,5.4409,5.4414,5.442,5.4349,5.4457,5.4645,5.4664,5.4425,5.4423,5.4421,0,5.3948,5.4051,5.4144,5.4168,5.4215,5.4258,5.4279,5.4314,5.435,5.4397,5.4419,5.4474,5.4504,5.4545,5.4543,5.4497,5.4646,5.4583,5.4648,5.4649,5.468,5.4678,5.4874,5.4703,5.4702,5.4702,5.4702,0,5.4108,5.4191,5.4198,5.4255,5.4346,5.4341,5.443,5.4446,5.4477,5.4534,5.4511,5.4564,5.4559,5.4613,5.4611,5.4695,5.4709,5.4712,5.471,5.4713,5.4712,5.4731,5.4722,5.4707,5.4706,5.4705,5.4704,0,5.4257,5.4265,5.4364,5.44,5.441,5.4475,5.4504,5.4556,5.4565,5.4637,5.4654,5.4666,5.4727,5.4729,5.48,5.4798,5.4899,5.4889,5.4887,5.4884,5.4948,5.4941,5.5162,5.519,5.5002,5.5004,5.5005,0,5.4358,5.4421,5.4463,5.45,5.4524,5.4585,5.4621,5.4617,5.4655,5.4702,5.4748,5.4808,5.4855,5.4953,5.4967,5.5019,5.5008,5.5082,5.5016,5.5016,5.5006,5.5002,5.5007,5.5094,5.5096,5.5098,5.51,0,5.4535,5.4535,5.459,5.4645,5.4689,5.4733,5.4772,5.4804,5.4804,5.4847,5.491,5.4947,5.5018,5.5076,5.5126,5.5144,5.5121,5.512,5.5138,5.5141,5.5136,5.5137,5.492,5.5115,5.5113,5.5112,5.5111,5.5111,5.4661,5.4714,5.4752,5.4812,5.4841,5.4879,5.4929,5.4943,5.4996,5.5054,5.5048,5.5117,5.515,5.5216,5.5238,5.529,5.5264,5.529,5.5296,5.5302,5.5308,5.5129,5.5299,5.5299,5.5298,5.5298,5.5298,0,5.4835,5.4856,5.4912,5.4969,5.5015,5.4991,5.5033,5.5072,5.5134,5.5168,5.5214,5.5284,5.534,5.5357,5.5409,5.5447,5.5437,5.5461,5.5457,5.5461,5.533,5.5308,5.5468,5.5468,5.5468,5.5468,5.5467,5.5467,5.493,5.5018,5.5023,5.5123,5.5144,5.5212,5.5238,5.5271,5.5297,5.5377,5.5423,5.5435,5.5461,5.5514,5.5563,5.5566,5.5585,5.5613,5.5611,5.5488,5.5471,5.5454,5.5434,5.5617,5.5618,5.5738,5.5739,5.574]}]]